星链-37100(STARLINK-37100)

导读

STARLINK-37100(NORAD编号68230)是美国SpaceX公司星链(Starlink)卫星互联网星座的一员,部署于近地低轨道,属于星链大规模组网的卫星之一。作为低轨通信卫星,它依托星链550公里左右轨道高度设计,配合星链整体技术架构,可提供低时延(典型约25毫秒)高带宽卫星互联网服务,支持地面用户乃至后续手机直连等通信需求,由SpaceX运营,服务于全球范围网络覆盖,尤其是偏远无地面网络区域,推动卫星互联网全球普及。

基本信息
目录编号:
68230
目录名称:
STARLINK-37100
国际标识:
2026-053Z
轨道中心:
EARTH
卫星名称:
星链-37100
卫星全名:
星链-37100(STARLINK-37100)
卫星状态:
在轨 (已飞行171 天)
发射日期:
2026-03-17 UTC
国别 :
美国 (US)
星等 :
--
轨道信息
数据来源 国际轨道数据
星历时间: 2026-09-03T23:21:38+0800
14小时前
查看轨道信息
半长轴: 6843.651km
偏心率: 0.0001445
轨道倾角: 97.284°
近地点辐角 101.980°
升交点赤经 120.718°
平近点角 258.160°
近地点: 464.525km
远地点: 466.503km
周期: 93.906分钟
每日圈数: 15.334551
详细信息
固有亮度:
5
最大亮度:
2.5
卫星平台:
Starlink V1.0
覆盖范围:
全球
运营商:
太空探索技术公司
运营商所在国:
美国
制造商(研发单位):
太空探索技术公司
制造商所在国:
美国
使用方式:
暂无
卫星简介
Starlink 计划是 SpaceX 推出的全球卫星互联网项目,通过发射低轨道卫星,为全球尤其是偏远地区提供高速、低延迟的互联网服务。自 2019 年起,Starlink 已部署数千颗卫星,旨在缩小全球数字鸿沟,推动互联网普及。该项目还为军事、航空等行业提供通信支持,带来广泛经济效益。
2D轨道图
3D轨道图
轨道高度分析图
轨道倾角分析图
轨道综合分析图
查看轨道综合分析图
交会数据列表
事件ID 空间交会对象 最接近时刻(TCA) 交会距离 交会风险概率(CRP) 交会风险指数(CRI) 操作
CDM_260905-123504-735406-823021
2026-09-05T
12:35:34+0000
1.302 km
极远距离
1.048821E-5 中风险 0.55
CDM_260904-152405-113906-823021
2026-09-04T
15:24:19+0000
2.455 km
极远距离
1.491264E-6 低风险 0.38
CDM_260903-035005-228206-823021
2026-09-03T
03:50:46+0000
2.658 km
极远距离
1.424575E-6 低风险 0.38
CDM_260904-154204-737106-823021
2026-09-04T
15:42:46+0000
2.891 km
极远距离
1.396022E-6 低风险 0.38
CDM_260904-143705-113906-823021
2026-09-04T
14:37:23+0000
2.550 km
极远距离
1.394856E-6 低风险 0.38
CDM_260830-191005-227106-823022
2026-08-30T
19:10:43+0000
2.598 km
极远距离
1.29777E-6 低风险 0.37
CDM_260830-195705-227106-823021
2026-08-30T
19:57:39+0000
2.824 km
极远距离
1.147565E-6 低风险 0.36